CFG207X EDDH-EGLL

Flight info

Callsign CFG207X
Flight time 1h 15m
Altitude 34000
Route WSN5C/05 WSN N125 ITMIZ PARYD ABNED L980 LOGAN LOGA2H
Aircraft B733/M-VGDW/C

Departure

Time 2026-04-20 17:13
Airport Hamburg Helmut Schmidt Airport (EDDH)

Arrival

Time 2026-04-20 18:28
Airport London Heathrow Airport (EGLL)
Time Latitude Longitude Altitude Speed Heading
2026-04-20 16:41 53.63373 10.00342 60 ft 0 kts 85°
2026-04-20 16:42 53.63450 10.00310 60 ft 0 kts 86°
2026-04-20 16:57 53.63450 10.00305 60 ft 2 kts 87°
2026-04-20 16:57 53.63448 10.00279 60 ft 2 kts 87°
2026-04-20 16:57 53.63448 10.00253 60 ft 2 kts 86°
2026-04-20 16:58 53.63446 10.00231 60 ft 1 kts 86°
2026-04-20 16:58 53.63450 10.00218 60 ft 1 kts 153°
2026-04-20 16:58 53.63455 10.00215 60 ft 1 kts 187°
2026-04-20 16:58 53.63461 10.00215 60 ft 0 kts 176°
2026-04-20 17:06 53.63449 10.00217 60 ft 6 kts 176°
2026-04-20 17:06 53.63385 10.00226 60 ft 15 kts 176°
2026-04-20 17:06 53.63273 10.00240 60 ft 16 kts 175°
2026-04-20 17:07 53.63159 10.00253 60 ft 16 kts 175°
2026-04-20 17:07 53.63081 10.00261 60 ft 5 kts 185°
2026-04-20 17:07 53.63016 10.00206 60 ft 13 kts 213°
2026-04-20 17:07 53.62936 10.00119 60 ft 13 kts 212°
2026-04-20 17:08 53.62871 10.00047 60 ft 8 kts 223°
2026-04-20 17:08 53.62822 9.99980 60 ft 0 kts 211°
2026-04-20 17:08 53.62821 9.99980 60 ft 1 kts 211°
2026-04-20 17:08 53.62742 9.99906 60 ft 19 kts 208°
2026-04-20 17:09 53.62642 9.99775 60 ft 13 kts 249°
2026-04-20 17:09 53.62629 9.99679 60 ft 8 kts 258°
2026-04-20 17:09 53.62604 9.99462 60 ft 24 kts 258°
2026-04-20 17:09 53.62573 9.99182 60 ft 24 kts 258°
2026-04-20 17:10 53.62561 9.99086 60 ft 11 kts 260°
2026-04-20 17:10 53.62531 9.98820 60 ft 24 kts 259°
2026-04-20 17:10 53.62499 9.98535 60 ft 25 kts 258°
2026-04-20 17:10 53.62465 9.98240 60 ft 25 kts 260°
2026-04-20 17:11 53.62432 9.97949 60 ft 18 kts 258°
2026-04-20 17:11 53.62427 9.97863 60 ft 0 kts 283°
2026-04-20 17:11 53.62479 9.97780 60 ft 14 kts 331°
2026-04-20 17:11 53.62540 9.97820 60 ft 10 kts 51°
2026-04-20 17:12 53.62551 9.97842 60 ft 0 kts 51°
2026-04-20 17:12 53.62622 9.97987 60 ft 49 kts 50°
2026-04-20 17:12 53.62997 9.98743 60 ft 116 kts 50°
2026-04-20 17:13 53.63609 10.00019 178 ft 153 kts 53°
2026-04-20 17:13 53.64304 10.01426 748 ft 159 kts 47°
2026-04-20 17:13 53.65055 10.02726 1502 ft 153 kts 47°
2026-04-20 17:13 53.65757 10.04012 2217 ft 147 kts 48°
2026-04-20 17:14 53.66456 10.05313 2734 ft 152 kts 49°
2026-04-20 17:14 53.67180 10.06688 3151 ft 164 kts 50°
2026-04-20 17:14 53.67957 10.08193 3524 ft 178 kts 50°
2026-04-20 17:14 53.68812 10.09880 3947 ft 197 kts 50°
2026-04-20 17:15 53.69793 10.11631 4370 ft 219 kts 34°
2026-04-20 17:15 53.71361 10.11994 4859 ft 252 kts 345°
2026-04-20 17:15 53.72687 10.10000 4995 ft 277 kts 293°
2026-04-20 17:15 53.72914 10.06700 5145 ft 294 kts 261°
2026-04-20 17:16 53.72534 10.03287 5946 ft 294 kts 260°
2026-04-20 17:16 53.72232 9.99907 6935 ft 289 kts 247°
2026-04-20 17:16 53.71080 9.97284 7716 ft 285 kts 213°
2026-04-20 17:16 53.69424 9.95321 8349 ft 291 kts 212°
2026-04-20 17:17 53.67990 9.92849 9043 ft 298 kts 234°
2026-04-20 17:17 53.66966 9.89813 9856 ft 298 kts 238°
2026-04-20 17:17 53.65949 9.86744 10523 ft 302 kts 238°
2026-04-20 17:17 53.64918 9.83621 11096 ft 310 kts 239°
2026-04-20 17:18 53.63851 9.80309 11240 ft 333 kts 240°
2026-04-20 17:18 53.62763 9.76764 11738 ft 343 kts 241°
2026-04-20 17:18 53.61673 9.73128 11989 ft 347 kts 242°
2026-04-20 17:18 53.60594 9.69481 12255 ft 348 kts 242°
2026-04-20 17:19 53.59516 9.65816 12927 ft 350 kts 242°
2026-04-20 17:19 53.58447 9.62172 13592 ft 352 kts 242°
2026-04-20 17:19 53.57352 9.58440 14254 ft 355 kts 242°
2026-04-20 17:19 53.56251 9.54689 14906 ft 358 kts 243°
2026-04-20 17:20 53.55148 9.50938 15545 ft 361 kts 243°
2026-04-20 17:20 53.54040 9.47173 16166 ft 364 kts 243°
2026-04-20 17:20 53.52905 9.43323 16770 ft 367 kts 243°
2026-04-20 17:20 53.51773 9.39488 17366 ft 370 kts 243°
2026-04-20 17:21 53.50629 9.35620 17938 ft 373 kts 243°
2026-04-20 17:21 53.49446 9.31617 18511 ft 375 kts 242°
2026-04-20 17:21 53.48289 9.27707 19066 ft 378 kts 242°
2026-04-20 17:21 53.47140 9.23835 19577 ft 380 kts 242°
2026-04-20 17:22 53.45952 9.19839 20087 ft 384 kts 242°
2026-04-20 17:22 53.44746 9.15795 20619 ft 386 kts 242°
2026-04-20 17:22 53.43543 9.11766 21107 ft 388 kts 242°
2026-04-20 17:22 53.42341 9.07749 21588 ft 391 kts 242°
2026-04-20 17:23 53.41104 9.03620 22032 ft 394 kts 242°
2026-04-20 17:23 53.39878 8.99536 22497 ft 397 kts 242°
2026-04-20 17:23 53.38618 8.95349 22958 ft 399 kts 242°
2026-04-20 17:23 53.37368 8.91198 23413 ft 401 kts 242°
2026-04-20 17:24 53.36126 8.87080 23851 ft 404 kts 242°
2026-04-20 17:24 53.34767 8.82964 24262 ft 407 kts 239°
2026-04-20 17:24 53.33470 8.78706 24649 ft 410 kts 244°
2026-04-20 17:24 53.32227 8.74396 25093 ft 412 kts 243°
2026-04-20 17:25 53.30959 8.70108 25501 ft 414 kts 243°
2026-04-20 17:25 53.29676 8.65758 25904 ft 415 kts 246°
2026-04-20 17:25 53.28695 8.61213 26268 ft 417 kts 253°
2026-04-20 17:25 53.27850 8.56561 26763 ft 416 kts 253°
2026-04-20 17:26 53.27008 8.51985 27257 ft 415 kts 252°
2026-04-20 17:26 53.26134 8.47332 27736 ft 413 kts 252°
2026-04-20 17:26 53.25264 8.42759 28195 ft 412 kts 252°
2026-04-20 17:26 53.24393 8.38203 28633 ft 412 kts 252°
2026-04-20 17:27 53.23527 8.33691 29084 ft 411 kts 251°
2026-04-20 17:27 53.22649 8.29120 29498 ft 410 kts 250°
2026-04-20 17:27 53.21801 8.24713 29959 ft 408 kts 250°
2026-04-20 17:27 53.20923 8.20173 30427 ft 406 kts 250°
2026-04-20 17:28 53.20063 8.15743 30812 ft 405 kts 250°
2026-04-20 17:28 53.19194 8.11271 31153 ft 405 kts 250°
2026-04-20 17:28 53.18323 8.06804 31448 ft 405 kts 249°
2026-04-20 17:28 53.17446 8.02317 31719 ft 404 kts 249°
2026-04-20 17:29 53.16569 7.97841 32015 ft 402 kts 249°
2026-04-20 17:29 53.15711 7.93466 32261 ft 401 kts 250°
2026-04-20 17:29 53.14837 7.89026 32455 ft 400 kts 249°
2026-04-20 17:29 53.13967 7.84618 32635 ft 401 kts 250°
2026-04-20 17:30 53.13105 7.80253 32853 ft 399 kts 250°
2026-04-20 17:30 53.12221 7.75790 33075 ft 398 kts 250°
2026-04-20 17:30 53.11368 7.71492 33286 ft 397 kts 250°
2026-04-20 17:30 53.10492 7.67090 33469 ft 397 kts 250°
2026-04-20 17:31 53.09560 7.62760 33614 ft 396 kts 248°
2026-04-20 17:31 53.08601 7.58511 33740 ft 396 kts 248°
2026-04-20 17:31 53.07641 7.54234 33858 ft 395 kts 248°
2026-04-20 17:31 53.06685 7.49947 34007 ft 394 kts 248°
2026-04-20 17:32 53.05736 7.45682 34145 ft 393 kts 248°
2026-04-20 17:32 53.04826 7.41416 34347 ft 393 kts 253°
2026-04-20 17:32 53.03973 7.37082 34551 ft 393 kts 251°
2026-04-20 17:32 53.03008 7.32975 34771 ft 392 kts 248°
2026-04-20 17:33 53.01939 7.28771 34948 ft 393 kts 247°
2026-04-20 17:33 53.00895 7.24744 35189 ft 391 kts 247°
2026-04-20 17:33 52.99853 7.20739 35451 ft 388 kts 248°
2026-04-20 17:33 52.98764 7.16558 35667 ft 387 kts 248°
2026-04-20 17:34 52.97696 7.12469 35864 ft 387 kts 248°
2026-04-20 17:34 52.96623 7.08362 36037 ft 387 kts 248°
2026-04-20 17:34 52.95547 7.04259 36177 ft 387 kts 248°
2026-04-20 17:35 52.93367 6.95958 36176 ft 394 kts 248°
2026-04-20 17:35 52.91147 6.87540 36155 ft 403 kts 248°
2026-04-20 17:36 52.88832 6.78834 36133 ft 412 kts 248°
2026-04-20 17:36 52.86491 6.70100 36150 ft 420 kts 248°
2026-04-20 17:37 52.84121 6.61226 36150 ft 429 kts 248°
2026-04-20 17:37 52.81704 6.52215 36151 ft 436 kts 248°
2026-04-20 17:38 52.79302 6.43293 36149 ft 440 kts 248°
2026-04-20 17:38 52.76781 6.33955 36134 ft 443 kts 247°
2026-04-20 17:39 52.74308 6.24803 36166 ft 444 kts 247°
2026-04-20 17:39 52.71926 6.16043 36188 ft 444 kts 247°
2026-04-20 17:40 52.69282 6.06360 36196 ft 445 kts 247°
2026-04-20 17:40 52.66745 5.97110 36205 ft 445 kts 247°
2026-04-20 17:41 52.64167 5.87747 36234 ft 445 kts 247°
2026-04-20 17:41 52.61596 5.78445 36219 ft 447 kts 247°
2026-04-20 17:42 52.59020 5.69164 36190 ft 446 kts 247°
2026-04-20 17:42 52.56415 5.59817 36190 ft 445 kts 248°
2026-04-20 17:43 52.53842 5.50617 36198 ft 445 kts 248°
2026-04-20 17:43 52.51300 5.41567 36198 ft 445 kts 248°
2026-04-20 17:44 52.48729 5.32444 36182 ft 445 kts 247°
2026-04-20 17:44 52.46166 5.23369 36200 ft 444 kts 246°
2026-04-20 17:45 52.43564 5.14209 36199 ft 444 kts 247°
2026-04-20 17:45 52.40953 5.05056 36198 ft 444 kts 247°
2026-04-20 17:46 52.38379 4.96068 36197 ft 443 kts 247°
2026-04-20 17:46 52.35783 4.87038 36196 ft 443 kts 247°
2026-04-20 17:47 52.33394 4.78757 36189 ft 442 kts 247°
2026-04-20 17:47 52.30601 4.69113 36187 ft 443 kts 247°
2026-04-20 17:48 52.27948 4.59989 36189 ft 443 kts 247°
2026-04-20 17:48 52.25380 4.51194 36189 ft 443 kts 247°
2026-04-20 17:49 52.22684 4.41990 36192 ft 443 kts 247°
2026-04-20 17:49 52.20037 4.32988 36188 ft 442 kts 246°
2026-04-20 17:50 52.17360 4.23902 36210 ft 441 kts 246°
2026-04-20 17:50 52.14692 4.14896 36222 ft 440 kts 246°
2026-04-20 17:51 52.12001 4.05846 36207 ft 440 kts 246°
2026-04-20 17:51 52.09333 3.96907 36209 ft 439 kts 246°
2026-04-20 17:52 52.06644 3.87943 36207 ft 439 kts 246°
2026-04-20 17:52 52.03968 3.79045 36215 ft 439 kts 246°
2026-04-20 17:53 52.01295 3.70191 36207 ft 438 kts 246°
2026-04-20 17:53 51.98637 3.61422 36218 ft 437 kts 246°
2026-04-20 17:54 51.95940 3.52554 36223 ft 437 kts 246°
2026-04-20 17:54 51.93259 3.43772 36224 ft 436 kts 247°
2026-04-20 17:55 51.90566 3.34981 36220 ft 436 kts 246°
2026-04-20 17:55 51.87841 3.26155 36219 ft 435 kts 246°
2026-04-20 17:56 51.85137 3.17301 36202 ft 434 kts 252°
2026-04-20 17:56 51.84477 3.12690 36230 ft 425 kts 266°
2026-04-20 17:56 51.84232 3.07942 36192 ft 426 kts 268°
2026-04-20 17:57 51.83754 2.98334 36201 ft 427 kts 267°
2026-04-20 17:57 51.83195 2.88783 36212 ft 427 kts 267°
2026-04-20 17:58 51.82612 2.79184 36225 ft 426 kts 267°
2026-04-20 17:58 51.82026 2.69630 36207 ft 427 kts 266°
2026-04-20 17:59 51.81418 2.60109 36205 ft 427 kts 266°
2026-04-20 17:59 51.81100 2.55295 35762 ft 431 kts 266°
2026-04-20 17:59 51.80786 2.50455 34261 ft 439 kts 267°
2026-04-20 17:59 51.80469 2.45547 33346 ft 431 kts 268°
2026-04-20 18:00 51.80160 2.40770 32640 ft 424 kts 268°
2026-04-20 18:00 51.79855 2.36061 31892 ft 422 kts 268°
2026-04-20 18:00 51.79557 2.31475 31016 ft 424 kts 267°
2026-04-20 18:00 51.79249 2.26761 29985 ft 425 kts 267°
2026-04-20 18:01 51.78938 2.22048 28849 ft 430 kts 267°
2026-04-20 18:01 51.78615 2.17199 28107 ft 421 kts 267°
2026-04-20 18:01 51.78307 2.12588 27620 ft 410 kts 267°
2026-04-20 18:01 51.78002 2.08004 26984 ft 404 kts 267°
2026-04-20 18:02 51.77706 2.03586 26357 ft 399 kts 267°
2026-04-20 18:02 51.77404 1.99123 25622 ft 395 kts 267°
2026-04-20 18:02 51.77110 1.94803 25384 ft 380 kts 267°
2026-04-20 18:02 51.76820 1.90546 25261 ft 387 kts 268°
2026-04-20 18:03 51.76519 1.86178 25209 ft 395 kts 267°
2026-04-20 18:03 51.76195 1.81711 25220 ft 401 kts 266°
2026-04-20 18:03 51.75872 1.77222 25241 ft 403 kts 266°
2026-04-20 18:03 51.75545 1.72625 25232 ft 407 kts 266°
2026-04-20 18:04 51.75223 1.68102 25255 ft 400 kts 267°
2026-04-20 18:04 51.74909 1.63686 25113 ft 393 kts 267°
2026-04-20 18:04 51.74608 1.59288 24216 ft 393 kts 268°
2026-04-20 18:04 51.74329 1.54943 23694 ft 383 kts 268°
2026-04-20 18:05 51.73793 1.46525 22295 ft 375 kts 268°
2026-04-20 18:05 51.73515 1.42399 21556 ft 373 kts 268°
2026-04-20 18:05 51.73237 1.38233 20785 ft 371 kts 268°
2026-04-20 18:06 51.72968 1.34160 20075 ft 369 kts 267°
2026-04-20 18:06 51.72699 1.30039 19314 ft 367 kts 267°
2026-04-20 18:06 51.72441 1.26090 18641 ft 365 kts 267°
2026-04-20 18:06 51.72173 1.22005 17972 ft 361 kts 267°
2026-04-20 18:07 51.71911 1.18018 17339 ft 358 kts 267°
2026-04-20 18:07 51.71664 1.14288 16676 ft 356 kts 267°
2026-04-20 18:07 51.71396 1.10260 16408 ft 341 kts 267°
2026-04-20 18:07 51.71143 1.06443 16268 ft 346 kts 267°
2026-04-20 18:08 51.70889 1.02641 16189 ft 352 kts 267°
2026-04-20 18:08 51.70624 0.98724 16219 ft 352 kts 267°
2026-04-20 18:08 51.70355 0.94771 16194 ft 353 kts 266°
2026-04-20 18:08 51.70085 0.90955 15262 ft 360 kts 266°
2026-04-20 18:09 51.69819 0.87209 14748 ft 353 kts 266°
2026-04-20 18:09 51.69537 0.83194 14233 ft 347 kts 266°
2026-04-20 18:09 51.69271 0.79408 13592 ft 344 kts 266°
2026-04-20 18:09 51.69008 0.75661 12992 ft 342 kts 266°
2026-04-20 18:10 51.68742 0.71874 12359 ft 341 kts 266°
2026-04-20 18:10 51.68478 0.68165 11753 ft 339 kts 266°
2026-04-20 18:10 51.68212 0.64475 11163 ft 337 kts 266°
2026-04-20 18:10 51.67952 0.60871 10586 ft 335 kts 266°
2026-04-20 18:11 51.67693 0.57292 10429 ft 319 kts 266°
2026-04-20 18:11 51.67457 0.54022 10415 ft 302 kts 267°
2026-04-20 18:11 51.67213 0.50630 10351 ft 287 kts 267°
2026-04-20 18:11 51.66984 0.47479 10103 ft 280 kts 266°
2026-04-20 18:12 51.66741 0.44430 9746 ft 279 kts 266°
2026-04-20 18:12 51.66475 0.41354 9391 ft 278 kts 265°
2026-04-20 18:12 51.66182 0.38265 9022 ft 277 kts 264°
2026-04-20 18:12 51.65869 0.35218 8649 ft 276 kts 263°
2026-04-20 18:13 51.65532 0.32184 8250 ft 276 kts 262°
2026-04-20 18:13 51.65171 0.29153 8028 ft 269 kts 261°
2026-04-20 18:13 51.64848 0.26604 7954 ft 258 kts 261°
2026-04-20 18:13 51.64526 0.24177 8049 ft 270 kts 261°
2026-04-20 18:14 51.64138 0.21313 8046 ft 296 kts 260°
2026-04-20 18:14 51.63708 0.18260 7997 ft 309 kts 259°
2026-04-20 18:15 51.62629 0.08865 8036 ft 270 kts 266°
2026-04-20 18:15 51.62394 0.05685 8071 ft 277 kts 266°
2026-04-20 18:15 51.62144 0.02220 8077 ft 289 kts 266°
2026-04-20 18:15 51.61913 -0.00972 8069 ft 297 kts 265°
2026-04-20 18:16 51.61541 -0.06105 8049 ft 273 kts 266°
2026-04-20 18:16 51.61340 -0.08844 8058 ft 274 kts 266°
2026-04-20 18:16 51.61122 -0.11826 8063 ft 275 kts 266°
2026-04-20 18:17 51.60921 -0.14541 8057 ft 275 kts 266°
2026-04-20 18:17 51.60717 -0.17282 8062 ft 276 kts 266°
2026-04-20 18:17 51.60514 -0.19958 8060 ft 277 kts 266°
2026-04-20 18:18 51.60072 -0.25675 7388 ft 282 kts 266°
2026-04-20 18:18 51.59851 -0.28461 7163 ft 276 kts 266°
2026-04-20 18:18 51.59637 -0.31116 6891 ft 274 kts 266°
2026-04-20 18:18 51.59425 -0.33744 6590 ft 273 kts 266°
2026-04-20 18:19 51.59171 -0.36905 6212 ft 272 kts 266°
2026-04-20 18:19 51.58971 -0.39411 5937 ft 271 kts 266°
2026-04-20 18:19 51.58553 -0.44718 5494 ft 265 kts 266°
2026-04-20 18:20 51.58341 -0.47478 5476 ft 272 kts 266°
2026-04-20 18:20 51.58167 -0.49811 5470 ft 272 kts 266°
2026-04-20 18:20 51.57960 -0.52590 5474 ft 273 kts 266°
2026-04-20 18:21 51.57479 -0.59017 5304 ft 265 kts 266°
2026-04-20 18:21 51.56885 -0.67101 4371 ft 265 kts 265°
2026-04-20 18:22 51.56609 -0.69966 4066 ft 265 kts 252°
2026-04-20 18:22 51.55631 -0.72347 3720 ft 264 kts 216°
2026-04-20 18:22 51.54033 -0.73387 3527 ft 251 kts 182°
2026-04-20 18:22 51.52999 -0.73523 3453 ft 245 kts 180°
2026-04-20 18:23 51.51459 -0.73699 3452 ft 227 kts 181°
2026-04-20 18:23 51.50020 -0.73869 3455 ft 219 kts 180°
2026-04-20 18:23 51.47761 -0.72840 3398 ft 168 kts 115°
2026-04-20 18:24 51.47502 -0.71171 3146 ft 147 kts 82°
2026-04-20 18:24 51.47494 -0.69735 3038 ft 119 kts 88°
2026-04-20 18:24 51.47507 -0.68443 2545 ft 122 kts 85°
2026-04-20 18:25 51.47519 -0.65833 1954 ft 118 kts 84°
2026-04-20 18:25 51.47485 -0.64571 1742 ft 116 kts 91°
2026-04-20 18:25 51.47476 -0.63191 1543 ft 117 kts 81°
2026-04-20 18:25 51.47546 -0.61962 1392 ft 119 kts 80°
2026-04-20 18:26 51.47610 -0.60830 1290 ft 118 kts 81°
2026-04-20 18:26 51.47647 -0.59569 1160 ft 120 kts 85°
2026-04-20 18:26 51.47663 -0.58200 1039 ft 123 kts 85°
2026-04-20 18:26 51.47681 -0.56858 849 ft 122 kts 85°
2026-04-20 18:27 51.47711 -0.52496 442 ft 127 kts 86°
2026-04-20 18:27 51.47733 -0.51068 337 ft 124 kts 88°
2026-04-20 18:28 51.47734 -0.49811 253 ft 128 kts 85°
2026-04-20 18:28 51.47744 -0.48590 138 ft 126 kts 88°
2026-04-20 18:28 51.47755 -0.46676 90 ft 39 kts 89°
2026-04-20 18:29 51.47756 -0.46281 90 ft 17 kts 97°
2026-04-20 18:29 51.47684 -0.46125 90 ft 17 kts 145°
2026-04-20 18:29 51.47669 -0.46108 90 ft 0 kts 145°